Scottsdale, AZ

6:34 AM MST on November 24, 2017 (GMT -0700)
Scottsdale

Weather History for KSDL - February, 2014

Change the Weather History Date:

Tuesday, February 11, 2014

  Actual Average Record
Temperature  
Mean Temperature 62 °F -  
Max Temperature 73 °F 64 °F 82 °F (2016)
Min Temperature 50 °F 45 °F 37 °F (2009)
Degree Days  
Heating Degree Days 4    
Growing Degree Days 12 (Base 50)    
Moisture  
Dew Point 33 °F    
Average Humidity 37    
Maximum Humidity 61    
Minimum Humidity 18    
Precipitation  
Precipitation 0.00 in - - ()
Sea Level Pressure  
Sea Level Pressure 29.97 in    
Wind  
Wind Speed 1 mph (SW)    
Max Wind Speed 9 mph    
Max Gust Speed -    
Visibility 10 miles    
Events      
Averages and records for this station are not official NWS values.
T = Trace of Precipitation, MM = Missing Value Source: NWS Daily Summary

Daily Weather History Graph

Daily Weather History Graph

Search for Another Location

Airport or City:

Trip Planner

Search our weather history database for the weather conditions in past years. The results will help you decide how hot, cold, wet, or windy it might be!

Date:

Astronomy

Feb. 11, 2014 Rise Set
Actual Time 7:15 AM MST 6:08 PM MST
Civil Twilight 6:50 AM MST 6:34 PM MST
Nautical Twilight 6:20 AM MST 7:03 PM MST
Astronomical Twilight 5:51 AM MST 7:32 PM MST
Moon 3:35 PM MST (2/11) 4:51 AM MST (2/11)
Length of Visible Light 11h 44m
Length of Day
10h 52m
Waxing Gibbous, 91% of the Moon is Illuminated
Feb 11
Waxing Gibbous
Feb 14
Full
Feb 22
Last Quarter
Mar 1
New
Mar 8
First Quarter

Hourly Weather History & Observations

Time (MST) Temp. Dew Point Humidity Pressure Visibility Wind Dir Wind Speed Gust Speed Precip Events Conditions
12:53 AM 57.9 °F 37.0 °F 46% 29.88 in 10.0 mi Calm Calm - N/A   Clear
1:53 AM 52.0 °F 37.9 °F 59% 29.89 in 10.0 mi Calm Calm - N/A   Clear
2:53 AM 53.1 °F 37.9 °F 57% 29.89 in 10.0 mi Calm Calm - N/A   Clear
3:53 AM 51.1 °F 37.9 °F 61% 29.90 in 10.0 mi Calm Calm - N/A   Clear
4:53 AM 52.0 °F 37.0 °F 57% 29.92 in 10.0 mi Calm Calm - N/A   Clear
5:53 AM 50.0 °F 37.0 °F 61% 29.93 in 10.0 mi South 3.5 mph - N/A   Clear
6:53 AM 50.0 °F 37.0 °F 61% 29.96 in 10.0 mi Calm Calm - N/A   Clear
7:53 AM 52.0 °F 36.0 °F 54% 29.98 in 10.0 mi Calm Calm - N/A   Clear
8:53 AM 55.9 °F 37.0 °F 49% 30.01 in 10.0 mi SSW 3.5 mph - N/A   Clear
9:53 AM 64.0 °F 34.0 °F 33% 30.04 in 10.0 mi Calm Calm - N/A   Clear
10:53 AM 69.1 °F 30.0 °F 23% 30.03 in 10.0 mi Calm Calm - N/A   Clear
11:53 AM 71.1 °F 30.0 °F 22% 30.01 in 10.0 mi Calm Calm - N/A   Clear
12:53 PM 72.0 °F 28.9 °F 20% 29.98 in 10.0 mi Variable 5.8 mph - N/A   Clear
1:53 PM 73.9 °F 28.0 °F 18% 29.96 in 10.0 mi WSW 4.6 mph - N/A   Clear
2:53 PM 73.0 °F 28.9 °F 20% 29.95 in 10.0 mi SW 5.8 mph - N/A   Clear
3:53 PM 73.9 °F 27.0 °F 18% 29.94 in 10.0 mi West 9.2 mph - N/A   Clear
4:53 PM 73.9 °F 28.9 °F 19% 29.94 in 10.0 mi WSW 4.6 mph - N/A   Clear
5:53 PM 72.0 °F 28.0 °F 20% 29.95 in 10.0 mi WSW 4.6 mph - N/A   Clear
6:53 PM 69.1 °F 30.0 °F 23% 29.97 in 10.0 mi WSW 3.5 mph - N/A   Clear
7:53 PM 63.0 °F 33.1 °F 33% 29.99 in 10.0 mi Calm Calm - N/A   Clear
8:53 PM 62.1 °F 30.9 °F 31% 30.02 in 10.0 mi Calm Calm - N/A   Clear
9:53 PM 60.1 °F 32.0 °F 35% 30.02 in 10.0 mi NE 3.5 mph - N/A   Clear
10:53 PM 60.1 °F 32.0 °F 35% 30.01 in 10.0 mi Calm Calm - N/A   Clear
11:53 PM 57.0 °F 32.0 °F 39% 30.03 in 10.0 mi SSE 4.6 mph - N/A   Clear